CYGFM01

Last updated on Tue Sep 22 2026 00:02:53 GMT+0000 (Coordinated Universal Time)

1 41887U 16078D 26264.57349222 .00020402 00000+0 22819-3 0 9996 2 41887 34.9401 340.5303 0004604 344.9322 15.1266 15.61730592543765
UTC large
Height (km)
Speed (km/s)
/
Latitude / Longitude
Inclination (degrees)
Orbital Period (minutes)
Azimuth
Elevation
Range (km)
Doppler Factor

Next 0 passes for location: London (51.5072 / 0.1276)

No passes found over London.
CYGFM01